SCP
0 0 0 0 0 0 0 0 0 0 0 0 0 0 0 0 0 0 0 0 0 0 0 0 0 0 0 0 0 0 0 0 0 0 0 0 0 0 0 0 0 0 0 0 0 0 0 0 0
0 0 0 0 0 0 0 0 0 -0 0 0 0 0 0 0 0 0 0 0 0 0 0 0 0 0 0 0 0 0 0 0 0 0 0 0 0 0 0 0 0 0 0 0 0 0 0 0 0
0 0 0 0 0 0 0 0 0 -0 0 0 0 0 0 0 0 0 0 0 0 0 0 0 0 0 0 0 0 0 0 0 0 0 0 0 0 0 0 0 0 0 0 0 0 0 0 0 0
0 0 0 0 0 0 0 0 0 -0 0 0 0 0 0 0 0 0 0 0 0 0 0 0 0 0 0 0 0 0 0 0 0 0 0 0 0 0 0 0 0 0 0 0 0 0 0 0 0
0 0 0 0 0 0 0 0 0 0 0 0 0 0 0 0 0 0 0 0 0 0 0 0 0 0 0 0 0 0 0 0 0 0 0 0 0 0 0 0 0 0 0 0 0 0 0 0 0
0 0 0 0 0 0 0 0 0 0 0 0 0 0 0 0 0 0 0 0 0 0 0 0 0 0 0 0 0 0 0 0 0 0 0 0 0 0 0 0 0 0 0 0 0 0 0 0 0
0 0 0 0 0 0 0 0 0 0 0 0 0 0 0 0 0 0 0 0 0 0 0 0 0 0 0 0 0 0 0 0 0 0 0 0 0 0 0 0 0 0 0 0 0 0 0 0 0
0 0 0 0 0 0 0 0 0 0 0 0 0 0 0 0 0 0 0 0 0 0 0 0 0 0 0 0 0 0 0 0 0 0 0 0 0 0 0 0 0 0 0 0 0 0 0 0 0
0 0 0 0 0 0 0 0 0 0 0 0 0 0 0 0 0 0 0 0 0 0 0 0 0 0 0 0 0 0 0 0 0 0 0 0 0 0 0 0 0 0 0 0 0 0 0 0 0
0 0 0 0 0 0 0 0 0 0 0 0 0 0 0 0 0 0 0 0 0 0 0 0 0 0 0 0 0 0 0 0 0 0 0 0 0 0 0 0 0 0 0 0 0 0 0 0 0
0 0 0 0 0 0 0 0 0 0 0 0 0 0 0 0 0 0 0 0 0 0 0 0 0 0 0 0 0 0 0 0 0 0 0 0 0 0 0 0 0 0 0 0 0 0 0 0 0
0 0 0 0 0 0 0 0 0 0 0 0 0 0 0 0 0 0 0 0 0 0 0 0 0 0 0 0 0 0 0 0 0 0 0 0 0 0 0 0 0 0 0 0 0 0 0 0 0
0 0 0 0 0 0 0 0 0 0 0 0 0 0 0 0 0 0 0 0 0 0 0 0 0 0 0 0 0 0 0 0 0 0 0 0 0 0 0 0 0 0 0 0 0 0 0 0 0
0 0 0 0 0 0 0 0 0 0 0 0 0 0 0 0 0 0 0 0 0 0 0 0 0 0 0 0 0 0 0 0 0 0 0 0 0 0 0 0 0 0 0 0 0 0 0 0 0
0 0 0 0 0 0 0 0 0 0 0 0 0 0 0 0 0 0 0 0 0 0 0 0 0 0 0 0 0 0 0 0 0 0 0 0 0 0 0 0 0 0 0 0 0 0 0 0 0
0 0 0 0 0 0 0 0 0 0 0 0 0 0 0 0 0 0 0 0 0 0 0 0 0 0 0 0 0 0 0 0 0 0 0 0 0 0 0 0 0 0 0 0 0 0 0 0 0
0 0 0 0 0 0 0 0 0 0 0 -0 0 0 0 0 0 0 0 0 0 0 0 0 0 0 0 0 0 0 0 0 0 0 0 0 0 0 0 0 0 0 0 0 0 0 0 0 0
0 0 0 0 0 0 0 0 0 0 -0 -0 -0 0 0 0 0 0 0 0 0 0 0 0 0 0 0 0 0 0 0 0 0 0 0 0 0 0 0 0 0 0 0 0 0 0 0 0 0
0 0 0 0 0 0 0 0 0 0 -0 -0 -0 0 0 0 0 0 0 0 0 0 0 0 0 0 0 0 0 0 0 0 0 0 0 0 0 0 0 0 0 0 0 0 0 0 0 0 0
0 0 0 0 0 0 0 0 0 0 0 0 0 0 0 0 0 0 0 0 0 0 0 0 0 0 0 0 0 0 0 0 0 0 0 0 0 0 0 0 0 0 0 0 0 0 0 0 0
0 0 0 0 0 0 0 0 0 0 0 0 0 0 0 0 0 0 0 0 0 0 0 0 0 0 0 0 0 0 0 0 0 0 0 0 0 0 0 0 0 0 0 0 0 0 0 0 0
0 0 0 0 0 0 0 0 0 0 0 0 0 0 0 0 0 0 0 0 0 0 0 0 0 0 0 0 0 0 0 0 0 0 0 0 0 0 0 0 0 0 0 0 0 0 0 0 0
0 0 0 0 0 0 0 0 0 0 0 0 0 0 0 0 0 0 0 0 0 0 0 0 0 0 0 0 0 0 0 0 0 0 0 0 0 0 0 0 0 0 0 0 0 0 0 0 0
0 0 0 0 0 0 0 -0 0 0 0 0 0 0 0 0 0 0 0 0 0 0 0 0 0 0 0 0 0 0 0 0 0 0 0 0 0 0 0 0 0 0 0 0 0 0 0 0 0
0 0 0 0 0 0 0 0 0 0 0 0 0 0 0 0 0 0 0 0 0 0 0 0 0 0 0 0 0 0 0 0 0 0 0 0 0 0 0 0 0 0 0 0 0 0 0 0 0
0 0 0 0 0 0 0 0 0 0 0 0 0 0 0 0 0 0 0 0 0 0 0 0 0 0 0 0 0 0 0 0 0 0 0 0 0 0 0 0 0 0 0 0 0 0 0 0 0
0 0 0 0 0 0 0 0 0 0 0 0 0 0 0 0 0 0 0 0 0 0 0 0 0 0 0 0 0 0 0 0 0 0 0 0 0 0 0 0 0 0 0 0 0 0 0 0 0
0 0 0 0 0 0 0 0 0 0 0 0 0 0 0 0 0 0 0 0 0 0 0 0 0 0 0 0 0 0 0 0 0 0 0 0 0 0 0 0 0 0 0 0 0 0 0 0 0
0 0 0 0 0 0 0 0 0 0 0 0 0 0 0 0 0 0 0 0 0 0 0 0 0 0 0 0 0 0 0 0 0 0 0 0 0 0 0 0 0 0 0 0 0 0 0 0 0
0 0 0 0 0 0 0 0 0 0 -0 -0 0 0 0 0 0 0 0 0 0 0 0 0 0 0 0 0 0 0 0 0 0 0 0 0 0 0 0 0 0 0 0 0 0 0 0 0 0
Wind_Speed
7 4 2 4 5 3 3 4 3 2 1 1 1 5 6 4 3 4 2 2 4 4 2 3 5 7 7 8 9 9 9 9 10 10 10 11 11 11 11 11 12 12 12 12 13 13 13 13 13
3 2 4 4 4 2 4 4 3 3 4 3 2 4 5 3 2 4 2 2 5 4 3 2 6 8 8 9 9 9 10 10 10 10 10 11 11 11 11 11 12 12 12 12 12 12 12 12 12
3 1 4 3 3 6 5 3 5 3 2 2 3 4 4 3 3 3 2 3 5 4 2 3 8 8 8 9 9 10 10 10 10 10 10 10 10 11 11 11 11 12 12 12 12 12 11 11 12
2 3 4 2 5 5 4 3 3 3 0 2 4 4 3 2 2 3 4 5 6 4 3 3 8 9 9 9 9 10 10 10 10 10 10 10 10 10 10 11 11 11 12 12 12 11 11 11 11
3 3 2 2 5 3 3 3 2 2 1 1 4 5 2 2 3 6 6 6 6 5 4 4 8 8 9 9 8 9 10 10 10 10 10 10 10 10 10 10 11 11 11 11 11 12 11 11 11
3 3 3 5 6 3 2 2 1 1 1 1 4 5 2 1 4 5 6 6 6 6 4 4 7 8 8 8 8 8 9 9 9 9 9 9 9 9 9 10 10 10 10 10 11 11 11 11 11
3 3 4 5 4 3 3 2 2 2 2 2 4 6 2 1 3 5 6 7 6 6 5 4 4 5 7 8 8 8 8 8 8 8 8 8 9 9 8 9 9 10 10 10 10 10 10 10 11
4 3 2 3 4 4 2 1 1 2 2 1 3 7 5 5 4 6 7 6 6 6 5 4 4 4 4 4 7 8 8 8 8 9 8 8 8 8 8 7 8 9 9 9 9 10 10 11 11
3 2 4 4 4 3 1 1 1 0 3 3 3 2 3 8 8 8 6 5 5 5 4 4 4 4 4 4 6 6 7 7 7 6 8 7 4 4 5 6 7 8 8 9 9 10 10 10 10
3 4 6 3 2 2 1 1 1 1 2 2 3 4 6 8 8 8 7 6 5 3 3 3 4 4 4 4 3 3 3 3 4 3 4 3 3 3 4 6 7 7 7 8 8 9 9 7 4
3 5 4 2 2 1 1 1 1 3 2 4 5 6 7 7 6 7 6 5 5 4 3 3 3 3 3 3 2 2 2 2 3 3 3 3 3 3 3 2 3 4 5 4 5 5 4 4 3
2 3 2 2 1 0 1 1 0 2 4 2 5 9 9 8 7 6 6 5 4 4 3 2 3 3 3 2 2 2 2 2 2 2 3 3 2 2 2 2 2 2 2 2 3 3 4 4 4
3 2 1 1 0 1 0 1 1 3 1 3 6 8 8 8 6 4 4 4 4 4 3 2 2 2 2 2 2 2 2 2 2 2 2 3 2 2 2 1 1 2 2 2 2 3 3 4 4
2 2 3 3 2 1 2 3 2 5 3 4 6 6 6 7 6 5 4 4 4 4 3 2 2 2 2 2 2 2 2 2 2 2 2 2 2 2 2 2 1 1 1 1 2 3 3 2 2
1 1 3 3 3 3 1 5 6 5 5 4 5 6 6 5 5 6 6 6 5 4 3 2 2 2 2 2 2 2 2 2 2 2 2 2 2 2 2 2 2 1 1 2 2 3 3 3 3
0 1 4 4 3 2 3 9 5 4 6 5 5 5 6 5 5 5 5 5 4 3 3 3 2 2 2 2 1 1 2 2 2 2 2 2 2 2 2 2 1 1 2 2 2 2 2 2 2
1 2 4 4 2 2 4 7 4 3 6 6 6 6 6 5 4 4 5 5 4 4 3 2 3 2 2 2 2 2 2 2 2 2 2 2 2 2 2 1 1 1 2 2 2 2 2 2 2
4 4 3 4 2 3 5 8 6 3 6 6 6 6 6 7 7 5 5 5 4 4 3 3 3 2 2 2 2 2 2 2 2 1 2 2 1 2 2 2 1 2 2 2 2 2 2 2 2
3 4 5 5 2 2 7 9 8 5 5 6 6 7 7 7 5 5 5 5 4 3 3 3 2 2 2 2 2 2 1 1 1 1 2 2 1 2 2 2 2 2 2 2 3 2 3 2 2
4 6 6 5 2 3 5 10 8 6 7 7 9 8 8 6 4 5 5 4 4 5 4 4 3 3 3 2 2 2 2 1 1 1 1 1 1 1 2 2 2 2 2 3 3 3 2 1 1
5 6 6 5 3 2 4 8 5 4 4 4 5 6 7 8 8 7 6 5 5 5 5 4 4 4 3 2 2 2 1 1 1 1 1 1 1 1 1 1 1 1 2 3 3 3 3 3 1
6 4 4 3 1 4 1 6 7 3 4 5 5 5 6 6 6 6 6 5 5 4 4 4 4 4 3 3 3 4 3 2 2 1 1 1 0 0 1 1 1 1 1 3 3 3 2 4 2
4 2 2 3 2 3 2 4 9 2 5 6 6 6 5 6 6 6 6 5 4 4 3 3 4 3 3 3 4 4 3 2 1 1 1 1 1 1 1 1 1 1 1 2 3 3 3 3 3
2 2 2 2 2 5 6 6 8 5 6 5 4 4 4 4 4 4 4 3 3 3 3 2 3 3 3 3 3 4 4 3 2 2 2 1 1 1 1 1 1 1 1 2 3 3 4 3 3
2 3 2 3 2 7 3 5 10 6 4 5 5 4 3 3 4 4 3 3 3 3 3 3 3 3 3 3 3 4 4 4 5 4 3 2 1 1 2 1 2 2 2 2 2 3 4 4 3
3 5 5 5 5 5 2 7 7 3 2 1 1 1 1 1 2 4 4 4 3 3 3 3 3 3 3 3 3 3 3 3 3 4 3 3 3 2 2 2 2 2 2 2 3 2 3 3 4
3 4 4 3 2 4 6 6 7 2 1 1 1 0 1 2 2 3 3 3 3 3 3 3 4 3 3 3 2 3 3 3 3 3 3 3 3 2 2 1 2 2 2 2 3 3 3 4 4
2 4 3 3 3 6 6 6 6 4 4 3 3 3 3 1 1 1 2 2 3 3 2 2 3 3 2 2 3 2 3 3 3 3 3 3 3 2 2 2 2 3 3 3 3 3 3 4 4
3 3 4 3 3 4 5 8 5 6 5 5 4 4 3 2 2 2 2 2 2 1 2 2 2 1 1 2 2 2 2 2 2 3 3 3 2 2 3 3 3 3 4 3 4 4 4 4 4
4 6 6 5 6 5 4 10 3 3 3 3 3 2 2 2 2 2 2 1 1 1 1 2 2 2 2 2 2 2 2 2 2 2 3 3 3 3 3 2 3 3 4 4 5 5 5 5 5
Wind_Direction
330 342 67 62 60 57 231 241 219 175 164 183 109 105 113 115 139 156 149 116 117 135 143 143 112 107 103 98 96 93 94 93 91 89 87 84 82 81 77 75 74 73 73 74 75 75 75 75 75
334 2 60 67 107 190 250 236 214 221 182 148 98 88 89 86 76 107 119 116 123 130 130 137 108 106 104 100 96 94 94 94 91 88 87 86 83 81 79 78 77 74 74 75 77 78 77 76 76
327 71 89 92 158 195 218 219 203 230 200 141 91 58 94 117 122 136 150 124 112 113 110 124 106 105 103 101 98 93 93 93 92 89 87 86 84 83 82 79 76 74 74 75 77 78 77 77 76
55 52 62 108 220 225 209 211 185 181 136 84 112 85 64 30 149 141 124 109 106 94 85 106 103 102 97 97 98 94 92 91 90 89 87 88 88 85 84 80 77 75 74 76 76 77 77 76 76
65 86 95 229 237 244 234 236 191 165 163 91 116 119 98 353 101 115 113 108 108 96 75 83 93 102 98 94 94 92 90 90 88 88 88 87 88 88 86 82 81 79 78 77 77 77 75 75 74
67 83 143 223 236 241 246 237 193 192 186 121 114 123 146 92 114 120 112 107 103 98 81 78 83 85 91 92 91 90 89 90 86 84 84 84 86 87 88 85 84 82 79 78 79 77 75 71 71
120 127 199 218 227 241 237 214 189 179 188 197 142 126 149 192 143 120 108 101 93 90 80 68 68 72 76 81 80 81 82 83 84 81 78 75 77 80 86 88 86 84 81 79 78 77 72 70 68
132 124 216 228 221 238 225 170 218 186 196 47 111 143 181 193 149 113 100 91 87 80 78 71 61 59 60 70 74 75 77 78 78 76 71 68 68 71 73 82 86 86 83 80 78 75 70 67 64
100 110 219 222 213 231 217 125 346 41 102 57 50 113 150 137 128 113 103 87 82 72 66 67 63 58 58 65 64 65 70 74 76 74 72 67 54 57 62 65 76 84 85 82 78 75 70 63 60
106 185 224 224 212 209 222 186 204 93 66 63 53 54 102 118 127 129 129 128 119 104 81 69 70 66 64 66 63 59 63 63 68 71 68 64 56 53 61 61 63 73 80 81 78 72 66 58 52
150 197 224 264 284 227 202 195 163 141 212 201 176 152 135 127 129 140 143 140 139 133 104 75 73 72 71 69 69 59 61 60 63 68 68 70 65 55 52 56 51 52 67 67 66 64 55 52 51
167 230 231 264 320 191 200 178 115 200 223 182 158 148 145 146 154 158 156 148 138 122 107 83 74 76 75 75 76 75 70 65 58 66 74 83 80 66 62 57 54 53 54 65 62 63 60 58 54
222 241 251 250 294 260 221 235 220 243 206 111 124 137 156 159 160 158 143 141 136 128 118 103 89 86 84 88 81 76 75 77 64 61 69 86 100 91 79 62 61 67 63 74 79 74 72 67 60
210 229 264 260 259 270 228 260 227 240 162 132 143 162 170 170 163 152 147 146 151 149 147 128 109 102 101 96 92 91 77 77 74 64 57 72 93 101 94 81 65 66 67 70 97 100 94 80 70
212 295 297 258 223 224 204 273 236 216 155 161 172 176 175 174 164 167 169 162 161 160 151 140 134 106 106 109 98 94 86 84 80 65 56 65 76 97 100 95 75 56 65 68 70 92 95 84 71
34 301 277 268 204 199 170 257 252 181 166 189 195 186 181 185 179 173 165 155 152 140 140 147 137 125 127 125 120 106 101 99 85 73 64 61 70 90 98 95 79 60 79 77 78 89 99 92 84
2 247 249 282 222 172 191 250 264 197 184 204 206 198 190 191 191 182 167 158 153 148 149 154 149 151 150 137 124 103 98 93 84 79 72 68 70 88 99 101 92 94 93 79 80 73 104 112 92
221 227 244 248 244 178 223 253 267 237 210 218 211 205 198 198 204 184 168 161 154 151 152 152 151 147 147 139 116 107 93 78 70 83 73 73 76 91 105 107 101 111 110 91 89 95 76 111 109
211 222 245 252 237 224 244 260 266 251 228 224 221 214 210 211 201 176 169 163 152 150 153 156 160 159 148 153 160 163 163 137 78 56 63 70 74 90 105 111 123 125 128 133 123 114 99 78 93
243 255 264 278 258 236 270 274 268 250 236 225 219 217 212 204 190 183 175 168 166 171 174 171 174 176 172 174 180 183 172 166 144 80 46 53 67 88 109 119 143 147 137 128 122 123 121 86 88
243 237 246 261 321 302 309 295 267 263 247 237 225 218 210 199 196 193 186 181 178 182 187 186 184 183 184 171 147 125 106 97 86 53 2 354 38 70 103 125 147 161 162 160 153 151 132 150 170
247 232 235 243 284 278 221 285 279 256 274 256 238 221 215 204 195 191 183 181 185 194 190 186 183 183 189 175 168 167 169 177 196 201 220 277 248 167 112 128 153 167 174 169 168 159 144 153 168
225 228 227 232 217 275 235 238 279 293 269 259 239 226 215 201 191 188 186 185 184 181 183 185 180 185 189 191 186 186 186 186 168 161 185 212 225 210 165 147 164 175 182 178 169 164 157 160 173
166 52 33 53 106 258 216 199 271 239 235 250 238 224 208 195 190 188 184 166 163 165 169 174 177 191 196 198 198 191 188 177 166 178 197 217 239 229 209 184 188 193 199 191 182 180 175 179 180
90 92 13 335 282 251 192 203 249 253 246 233 233 233 222 198 185 176 171 168 167 172 180 179 183 201 205 203 207 203 196 191 191 195 201 206 217 243 229 209 206 208 217 207 189 185 186 190 190
193 159 177 219 237 277 266 231 251 265 276 271 224 232 217 190 188 181 182 179 180 187 189 186 191 202 206 209 217 218 205 197 201 202 204 210 216 224 234 223 213 215 214 214 199 198 202 200 201
172 204 187 167 251 267 259 272 291 279 313 312 292 13 275 220 199 199 197 189 186 192 199 198 198 199 204 210 213 218 217 210 209 207 208 213 220 220 203 224 232 224 220 217 201 206 214 209 210
185 161 125 159 218 255 270 253 243 244 250 253 242 248 260 257 228 224 217 208 205 204 206 199 197 201 206 207 213 214 221 219 212 201 210 216 224 220 204 212 242 238 226 222 209 212 217 215 216
174 179 177 179 196 206 262 263 222 211 219 228 241 241 241 233 234 240 240 226 213 209 196 196 195 191 208 215 223 224 224 222 207 207 214 215 221 223 213 217 228 241 232 224 215 216 214 221 224
202 200 173 192 230 209 233 264 253 221 227 213 241 258 239 229 234 236 237 250 235 229 228 218 206 208 225 228 217 219 222 219 213 217 223 216 211 216 220 218 230 247 242 232 221 220 219 218 224